Simultaneous Nadir Overpasses (SNOs) Predictions

Prediction of SNOs between GOES-17 and AQUA Satellite Orbit:

Table of predicted SNOs for the next 14.0 days since TLE Epoch: 9/6/2019
Index Date Time (GOES-17) GOES-17 Lat,Lon AQUA Lat,Lon Distance(km) Time Diff (sec)
1 09/08/2019 10:36:36 -0.02,-137.21 -0.35,-135.67 174.69 80
2 09/08/2019 23:00:39 0.02,-137.19 -0.78,-140.86 417.08 80
3 09/10/2019 22:45:48 0.02,-137.19 -0.11,-137.91 81.60 80
4 09/12/2019 22:36:16 0.01,-137.18 0.50,-134.95 253.78 80
5 09/13/2019 10:54:51 -0.01,-137.19 0.60,-140.10 331.49 80
6 09/15/2019 10:45:19 -0.01,-137.17 -0.02,-137.14 3.56 80
7 09/17/2019 10:33:07 -0.00,-137.15 -0.65,-134.18 337.56 80
8 09/17/2019 22:51:51 0.00,-137.13 -0.49,-139.37 254.84 80
9 09/19/2019 22:42:19 0.01,-137.10 0.14,-136.41 78.36 80




NCC Satellite Simultaneous Nadir Overpasses (SNOs) Prediction Service
